Location: Lake Forest Estates
(37.9451°N, 90.2085°W)
Time: 09:12:48
(UTC+00:00)

Hubble Space Telescope - Visible Passes

Search period start: 08 November 2024 00:00
Search period end: 18 November 2024 00:00
Orbit: 501 x 505 km, 28.5° (Epoch: 07 November)

Date Brightness Start Highest point End Pass type
(mag) Time Alt. Az. Time Alt. Az. Time Alt. Az.
10 Nov 3.4 12:03:14 10° SSW 12:05:00 13° SSE 12:06:46 10° SE visible
11 Nov 3.3 11:40:43 10° SSW 11:42:41 13° SSE 11:44:39 10° SE visible
12 Nov 3.2 11:18:12 10° SSW 11:20:21 14° SSE 11:22:29 10° SE visible
13 Nov 3.1 10:56:12 12° SSW 10:57:58 15° SSE 11:00:15 10° SE visible
14 Nov 3.0 10:35:21 16° S 10:35:34 16° SSE 10:37:59 10° SE visible
14 Nov 2.8 12:12:24 10° SW 12:15:21 20° S 12:18:17 10° SE visible
15 Nov 3.3 10:14:23 14° SSE 10:14:23 14° SSE 10:15:39 10° SE visible
15 Nov 2.7 11:50:00 10° SW 11:52:56 20° S 11:55:51 10° SE visible
16 Nov 2.6 11:27:57 12° SW 11:30:28 20° S 11:33:23 10° SE visible
17 Nov 2.5 11:06:52 17° SSW 11:08:00 20° S 11:10:53 10° SE visible
